Weather History for Geneva, Switzerland

Change the Weather History Date:

Monday, May 27, 2013

  Actual Average Record
Temperature  
Mean Temperature 50 °F -  
Max Temperature 65 °F 70 °F 86 °F (2005)
Min Temperature 36 °F 50 °F 36 °F (2013)
Degree Days  
Heating Degree Days 14    
Moisture  
Dew Point 39 °F    
Average Humidity 65    
Maximum Humidity 100    
Minimum Humidity 25    
Precipitation  
Precipitation 0.00 in 0.11 in - ()
Sea Level Pressure  
Sea Level Pressure 29.91 in    
Wind  
Wind Speed 2 mph ()    
Max Wind Speed 8 mph    
Max Gust Speed -    
Visibility 6.2 miles    
Events      
Averages and records for this station are not official NWS values.
T = Trace of Precipitation, MM = Missing Value Source: Averaged Metar Reports

Daily Weather History Graph

Daily Weather History Graph

Search for Another Location

Airport:

Trip Planner

Search our weather history database for the weather conditions in past years. The results will help you decide how hot, cold, wet, or windy it might be!

Date:

Astronomy

May. 27, 2013 Rise Set
Actual Time 5:50 AM CEST 9:15 PM CEST
Civil Twilight 5:13 AM CEST 9:52 PM CEST
Nautical Twilight 4:25 AM CEST 10:41 PM CEST
Astronomical Twilight 3:22 AM CEST 11:44 PM CEST
Moon 11:37 PM CEST (5/27) 8:11 AM CEST (5/27)
Length of Visible Light 16h 38m
Length of Day
15h 24m
Waning Gibbous, 93% of the Moon is Illuminated
May 27
Waning Gibbous
May 31
Last Quarter
Jun 8
New
Jun 16
First Quarter
Jun 23
Full

Hourly Weather History & Observations

Time (CEST) Temp. Windchill Dew Point Humidity Pressure Visibility Wind Dir Wind Speed Gust Speed Precip Events Conditions
12:00 AM 41 °F - 38 °F 87% 30.08 in - NNE 1.2 mph - -  
12:20 AM 41.0 °F - 39.2 °F 93% 30.04 in 6.2 mi Calm Calm - N/A   Partly Cloudy
12:50 AM 39.2 °F - 39.2 °F 100% 30.04 in 6.2 mi Calm Calm - N/A   Partly Cloudy
1:00 AM 40 °F - 38 °F 88% 30.07 in - NE 1.2 mph - -  
1:20 AM 39.2 °F - 37.4 °F 93% 30.01 in 6.2 mi Calm Calm - N/A   Partly Cloudy
1:50 AM 39.2 °F - 37.4 °F 93% 30.01 in 6.2 mi WNW 1.2 mph - N/A   Partly Cloudy
2:00 AM 39 °F - 37 °F 88% 30.06 in 25 mi NNW 1.2 mph - -   Scattered Clouds
2:20 AM 37.4 °F - 37.4 °F 100% 30.01 in 6.2 mi Calm Calm - N/A   Partly Cloudy
2:50 AM 37.4 °F - 37.4 °F 100% 30.01 in 6.2 mi Calm Calm - N/A   Partly Cloudy
3:00 AM 39 °F - 36 °F 85% 30.06 in - North 1.2 mph - -  
3:50 AM 35.6 °F - 35.6 °F 100% 30.01 in - Variable 1.2 mph - N/A   Clear
4:00 AM 38 °F - 35 °F 86% 30.05 in - WNW 1.2 mph - -  
4:20 AM 35.6 °F - 35.6 °F 100% 29.98 in - Calm Calm - N/A   Clear
4:50 AM 35.6 °F - 35.6 °F 100% 29.98 in - Calm Calm - N/A   Clear
5:20 AM 35.6 °F - 35.6 °F 100% 29.98 in 6.2 mi Calm Calm - N/A   Partly Cloudy
5:50 AM 35.6 °F - 35.6 °F 100% 29.98 in - Calm Calm - N/A   Clear
6:00 AM 36 °F - 34 °F 89% 30.04 in - NW 1.2 mph - -  
6:20 AM 35.6 °F - 33.8 °F 93% 29.98 in - Calm Calm - N/A   Clear
6:50 AM 37.4 °F - 37.4 °F 100% 29.98 in - North 2.3 mph - N/A   Clear
7:00 AM 39 °F - 36 °F 86% 30.03 in - North 3.5 mph - -  
7:20 AM 41.0 °F 39.0 °F 39.2 °F 93% 29.98 in - North 3.5 mph - N/A   Clear
7:50 AM 44.6 °F - 41.0 °F 87% 29.98 in - Variable 2.3 mph - N/A   Clear
8:00 AM 44 °F - 38 °F 71% 30.01 in 25 mi ENE 2.3 mph - -   Clear
8:20 AM 46.4 °F 45.2 °F 39.2 °F 76% 29.98 in - Variable 3.5 mph - N/A   Clear
8:50 AM 48.2 °F - 39.2 °F 71% 29.98 in 6.2 mi Variable 3.5 mph - N/A   Partly Cloudy
9:00 AM 47 °F - 38 °F 61% 29.99 in - ENE 3.5 mph - -  
9:20 AM 50.0 °F - 41.0 °F 71% 29.95 in 6.2 mi Variable 1.2 mph - N/A   Partly Cloudy
9:50 AM 51.8 °F - 41.0 °F 67% 29.95 in 6.2 mi ENE 4.6 mph - N/A   Partly Cloudy
10:00 AM 51 °F - 39 °F 52% 29.97 in - ENE 6.9 mph - -  
10:20 AM 53.6 °F - 39.2 °F 58% 29.95 in 6.2 mi ENE 5.8 mph - N/A   Partly Cloudy
10:50 AM 53.6 °F - 39.2 °F 58% 29.95 in 6.2 mi East 5.8 mph - N/A   Partly Cloudy
11:20 AM 53.6 °F - 39.2 °F 58% 29.92 in 6.2 mi NE 6.9 mph - N/A   Partly Cloudy
11:50 AM 55.4 °F - 41.0 °F 58% 29.92 in 6.2 mi East 6.9 mph - N/A   Partly Cloudy
12:00 PM 55 °F - 40 °F 47% 29.93 in - ENE 6.9 mph - -  
12:20 PM 57.2 °F - 41.0 °F 55% 29.92 in 6.2 mi ENE 8.1 mph - N/A   Partly Cloudy
12:50 PM 57.2 °F - 39.2 °F 51% 29.92 in 6.2 mi East 6.9 mph - N/A   Scattered Clouds
1:00 PM 59 °F - 39 °F 36% 29.89 in - ENE 5.8 mph - -  
1:20 PM 59.0 °F - 41.0 °F 51% 29.89 in 6.2 mi ENE 5.8 mph - N/A   Scattered Clouds
1:50 PM 60.8 °F - 41.0 °F 48% 29.89 in 6.2 mi Variable 5.8 mph - N/A   Scattered Clouds
2:00 PM 60 °F - 40 °F 36% 29.87 in 31 mi ENE 6.9 mph - -   Scattered Clouds
2:20 PM 60.8 °F - 39.2 °F 45% 29.89 in 6.2 mi NE 5.8 mph - N/A   Scattered Clouds
2:50 PM 62.6 °F - 37.4 °F 39% 29.86 in 6.2 mi NNE 4.6 mph - N/A   Partly Cloudy
3:00 PM 62 °F - 37 °F 28% 29.85 in - NNE 3.5 mph - -  
3:20 PM 64.4 °F - 39.2 °F 40% 29.86 in 6.2 mi Variable 3.5 mph - N/A   Partly Cloudy
3:50 PM 64.4 °F - 37.4 °F 37% 29.86 in 6.2 mi ESE 4.6 mph - N/A   Partly Cloudy
4:00 PM 64 °F - 39 °F 28% 29.83 in - ESE 3.5 mph - -  
4:20 PM 66.2 °F - 39.2 °F 37% 29.86 in 6.2 mi Variable 3.5 mph - N/A   Partly Cloudy
4:50 PM 66.2 °F - 39.2 °F 37% 29.83 in 6.2 mi NE 4.6 mph - N/A   Partly Cloudy
5:20 PM 64.4 °F - 39.2 °F 40% 29.83 in 6.2 mi East 5.8 mph - N/A   Partly Cloudy
5:50 PM 66.2 °F - 39.2 °F 37% 29.80 in 6.2 mi East 5.8 mph - N/A   Partly Cloudy
6:00 PM 65 °F - 38 °F 25% 29.78 in - ENE 5.8 mph - -  
6:20 PM 66.2 °F - 41.0 °F 40% 29.80 in 6.2 mi East 4.6 mph - N/A   Scattered Clouds
6:50 PM 64.4 °F - 37.4 °F 37% 29.80 in 6.2 mi NE 4.6 mph - N/A   Scattered Clouds
7:00 PM 62 °F - 40 °F 33% 29.77 in - NNE 4.6 mph - -  
7:20 PM 64.4 °F - 41.0 °F 42% 29.80 in 6.2 mi NNE 4.6 mph - N/A   Scattered Clouds
7:50 PM 64.4 °F - 39.2 °F 40% 29.77 in 6.2 mi NE 3.5 mph - N/A   Partly Cloudy
8:00 PM 61 °F - 40 °F 35% 29.77 in 37 mi NNE 3.5 mph - -   Scattered Clouds
8:20 PM 60.8 °F - 44.6 °F 55% 29.77 in 6.2 mi East 2.3 mph - N/A   Scattered Clouds
8:50 PM 57.2 °F - 44.6 °F 63% 29.77 in - ENE 3.5 mph - N/A   Clear
9:00 PM 57 °F - 43 °F 48% 29.78 in - NNE 3.5 mph - -  
9:20 PM 55.4 °F - 44.6 °F 67% 29.77 in - Variable 2.3 mph - N/A   Clear
9:50 PM 55.4 °F - 44.6 °F 67% 29.77 in - Variable 1.2 mph - N/A   Clear
10:00 PM 56 °F - 44 °F 54% 29.79 in - West 2.3 mph - -  
10:20 PM 55.4 °F - 46.4 °F 72% 29.80 in - Calm Calm - N/A   Clear
10:50 PM 53.6 °F - 46.4 °F 77% 29.80 in - Calm Calm - N/A   Clear
11:20 PM 53.6 °F - 46.4 °F 77% 29.80 in - Variable 2.3 mph - N/A   Clear
11:50 PM 53.6 °F - 48.2 °F 82% 29.80 in - Calm Calm - N/A   Clear